Regional Weather Roundup
Issued by NWS

Home | Current Version | Previous Version | Text Only | Print | Product List | Glossary Off
Versions: 1 2 3 4 5 6 7 8 9 10 11 12 13 14 15 16 17 18 19 20 21 22 23 24 25 26 27 28 29 30 31 32 33 34 35 36 37 38 39 40 41 42 43 44 45 46 47 48 49 50

582
ASUS43 KIND 230709
RWRIN

WEATHER ROUNDUP FOR INDIANA
NATIONAL WEATHER SERVICE INDIANAPOLIS IN
300 AM EDT SAT JUL 23 2016

NOTE: "FAIR" INDICATES FEW OR NO CLOUDS BELOW 12,000 FEET WITH NO
SIGNIFICANT WEATHER AND/OR OBSTRUCTIONS TO VISIBILITY.

* - STATION DOES NOT REPORT WEATHER SUCH AS PRECIPITATION OR FOG.

+ - STATION NOT QUALITY CONTROLLED BY THE NATIONAL WEATHER SERVICE.
    USE DATA WITH CAUTION...ESPECIALLY DEWPOINT AND RELATIVE
    HUMIDITY OBSERVATIONS.

INZ001>003-010>013-019-020-230800-
NORTHWEST INDIANA

CITY           SKY/WX    TMP DP  RH WIND       PRES   REMARKS
GARY /AIRPORT/ CLEAR     80  80 100 CALM      30.00F
KNOX *+        CLEAR     72  70  94 SW5       30.01R
LA PORTE +     CLEAR    N/A N/A N/A CALM      30.01S
MICHIGAN CITY+ CLEAR     73  73 100 CALM      30.01S
MONTICELLO +   CLEAR     73  69  88 CALM      30.01S
RENSSELAER +   CLEAR     72  72 100 CALM      30.01S
VALPARAISO     CLEAR     76  73  91 W5        30.01S

$$

LMZ046-743>745-230800-
SOUTHERN LAKE MICHIGAN

STATION/POSITION TIME  TEMP    WIND        PRES    WAVE
                       AIR SEA DIR/SP/G            HT
                 (UTC) (F)     (DEG/KT/KT) (MB)    (FT)
BURNS HARBOR     0600   79     210/ 10/ 13 1015.9F
MICHIGAN CITY    0600   78     180/  9/ 10   N/A
5NW MICH CITY    0700   77 75  230/  6/  6   N/A     1

$$

INZ004-005-014>016-021>024-230800-
NORTH CENTRAL INDIANA

CITY           SKY/WX    TMP DP  RH WIND       PRES   REMARKS
GOSHEN         CLEAR     72  69  90 CALM      30.01S FOG
LOGANSPORT +   CLEAR     72  70  94 CALM      30.02S
PERU/GRISSOM   CLEAR     72  72 100 W6        30.00S
ROCHESTER +    CLEAR     77  75  94 W3        30.02S
SOUTH BEND     CLEAR     74  73  97 CALM      30.01S
WARSAW +       CLEAR     72  72 100 W3        30.01S

$$

INZ006>009-017-018-025>027-230800-
NORTHEAST INDIANA

CITY           SKY/WX    TMP DP  RH WIND       PRES   REMARKS
ANGOLA *+        N/A     68  59  73 CALM      30.01S
AUBURN +       CLEAR     72  68  88 CALM      30.01F
FORT WAYNE     PTCLDY    72  69  90 SW3       30.01S
HUNTINGTON +   CLEAR    N/A N/A N/A CALM      30.01S

$$

INZ028-029-035-036-043>045-051>053-230800-
WEST CENTRAL INDIANA

CITY           SKY/WX    TMP DP  RH WIND       PRES   REMARKS
CRAWFORDSVL +  FOG       68  68 100 CALM      30.03R VSB 3/4
GREENCASTLE +  CLEAR     70  70 100 CALM      30.03S
LAFAYETTE      PTCLDY    71  71 100 CALM      30.01S FOG
TERRE HAUTE    FOG       72  70  93 CALM      30.02R VSB 3/4

$$

INZ030>032-037>040-046>048-054>057-064-065-230800-
CENTRAL INDIANA

CITY           SKY/WX    TMP DP  RH WIND       PRES   REMARKS
FRANKFORT +    MOCLDY   N/A N/A N/A CALM      30.04S
INDIANAPOLIS   PTCLDY    74  71  91 S3        30.02S
-EAGLE CREEK   CLEAR     76  72  87 CALM      30.01S
KOKOMO *+      CLEAR     73  66  78 W5        30.02R
MARION +       CLEAR     69  69  99 CALM      30.02F
MT COMFORT *+  CLEAR     68  68 100 CALM      30.03S
SHELBYVILLE    CLEAR     73  70  90 CALM      30.02S
ZIONSVILLE +   CLEAR     69  68  99 CALM      30.03F FOG

$$

INZ033-034-041-042-049-050-058-059-230800-
EAST CENTRAL INDIANA

CITY           SKY/WX    TMP DP  RH WIND       PRES   REMARKS
MUNCIE         CLEAR     74  70  87 CALM      30.02F

$$

INZ060-061-067>069-081>083-085>088-230800-
SOUTHWEST INDIANA

CITY           SKY/WX    TMP DP  RH WIND       PRES   REMARKS
EVANSVILLE     CLEAR     75  74  96 CALM      30.00F
HUNTINGBURG *+ MOCLDY    73  70  88 CALM      30.01S VSB 1
WASHINGTON +   FOG       72  72 100 MISG      30.00F VSB 1

$$

INZ062-063-066-070>080-084-089>092-230800-
SOUTH CENTRAL AND SOUTHEAST INDIANA

CITY           SKY/WX    TMP DP  RH WIND       PRES   REMARKS
BLOOMINGTON    FOG       73  71  93 N5        30.02F VSB 3/4
MADISON *+       N/A     73  72  94 CALM      30.05S VSB 1/2
NORTH VERNON + MOCLDY   N/A N/A N/A CALM      30.03F HAZE
SEYMOUR +      FOG       72  72 100 CALM      30.02S VSB 1/4

$$





USA.gov is the U.S. government's official web portal to all federal, state and local government web resources and services.